Time,TemperatureF,DewpointF,PressureIn,WindDirection,WindDirectionDegrees,WindSpeedMPH,WindSpeedGustMPH,Humidity,HourlyPrecipIn,Conditions,Clouds,dailyrainin,SoftwareType,DateUTC
2013-08-08 00:01:00,83.0,45.0,29.80,WSW,255,2.0,3.0,26,0.00,,,0.00,,2013-08-08 07:01:00,
2013-08-08 00:43:00,82.0,47.0,29.80,SW,221,2.0,3.0,29,0.00,,,0.00,,2013-08-08 07:43:00,
2013-08-08 00:53:00,81.0,45.0,29.79,WSW,243,2.0,3.0,28,0.00,,,0.00,,2013-08-08 07:53:00,
2013-08-08 01:01:00,81.0,46.0,29.79,WSW,239,2.0,4.0,29,0.00,,,0.00,,2013-08-08 08:01:00,
2013-08-08 01:11:00,81.0,46.0,29.79,WSW,242,1.0,4.0,29,0.00,,,0.00,,2013-08-08 08:11:00,
2013-08-08 01:32:00,81.0,46.0,29.79,ESE,120,2.0,2.0,29,0.00,,,0.00,,2013-08-08 08:32:00,
2013-08-08 01:52:00,81.0,45.0,29.78,WSW,241,1.0,3.0,28,0.00,,,0.00,,2013-08-08 08:52:00,
2013-08-08 02:01:00,81.0,45.0,29.78,WSW,241,1.0,3.0,28,0.00,,,0.00,,2013-08-08 09:01:00,
2013-08-08 03:01:00,80.0,47.0,29.78,SE,144,1.0,3.0,32,0.00,,,0.00,,2013-08-08 10:01:00,
2013-08-08 03:11:00,80.0,48.0,29.78,SE,142,1.0,3.0,33,0.00,,,0.00,,2013-08-08 10:11:00,
2013-08-08 03:32:00,79.0,47.0,29.78,South,188,1.0,2.0,33,0.00,,,0.00,,2013-08-08 10:32:00,
2013-08-08 03:43:00,78.0,48.0,29.78,SSW,199,2.0,3.0,35,0.00,,,0.00,,2013-08-08 10:43:00,
2013-08-08 03:52:00,78.0,48.0,29.78,South,191,1.0,2.0,35,0.00,,,0.00,,2013-08-08 10:52:00,
2013-08-08 04:52:00,76.0,51.0,29.78,SSE,157,1.0,2.0,41,0.00,,,0.00,,2013-08-08 11:52:00,
2013-08-08 05:01:00,77.0,50.0,29.78,SE,141,3.0,4.0,39,0.00,,,0.00,,2013-08-08 12:01:00,
2013-08-08 05:11:00,77.0,49.0,29.78,SE,146,2.0,4.0,38,0.00,,,0.00,,2013-08-08 12:11:00,
2013-08-08 05:32:00,77.0,48.0,29.79,SE,146,0.0,0.0,36,0.00,,,0.00,,2013-08-08 12:32:00,
2013-08-08 05:52:00,76.0,49.0,29.79,SSW,194,0.0,0.0,38,0.00,,,0.00,,2013-08-08 12:52:00,
2013-08-08 06:01:00,76.0,49.0,29.79,SSW,194,0.0,1.0,39,0.00,,,0.00,,2013-08-08 13:01:00,
2013-08-08 07:02:00,76.0,52.0,29.80,SSE,168,0.0,0.0,44,0.00,,,0.00,,2013-08-08 14:02:00,
2013-08-08 07:11:00,77.0,53.0,29.80,SSE,167,0.0,0.0,44,0.00,,,0.00,,2013-08-08 14:11:00,
2013-08-08 07:52:00,83.0,55.0,29.81,West,262,0.0,0.0,39,0.00,,,0.00,,2013-08-08 14:52:00,
2013-08-08 08:01:00,84.0,54.0,29.81,West,260,0.0,0.0,36,0.00,,,0.00,,2013-08-08 15:01:00,
2013-08-08 08:11:00,85.0,55.0,29.81,ENE,62,0.0,0.0,36,0.00,,,0.00,,2013-08-08 15:11:00,
2013-08-08 08:52:00,89.0,53.0,29.82,SE,140,0.0,0.0,29,0.00,,,0.00,,2013-08-08 15:52:00,
2013-08-08 09:01:00,91.0,54.0,29.82,South,177,0.0,1.0,29,0.00,,,0.00,,2013-08-08 16:01:00,
2013-08-08 10:52:00,102.0,40.0,29.81,West,275,5.0,5.0,12,0.00,,,0.00,,2013-08-08 17:52:00,
2013-08-08 11:32:00,104.0,37.0,29.81,West,268,5.0,7.0,10,0.00,,,0.00,,2013-08-08 18:32:00,
2013-08-08 11:42:00,105.0,35.0,29.81,West,264,7.0,11.0,9,0.00,,,0.00,,2013-08-08 18:42:00,
2013-08-08 11:52:00,105.0,32.0,29.81,WSW,250,8.0,10.0,8,0.00,,,0.00,,2013-08-08 18:52:00,
2013-08-08 12:01:00,105.0,32.0,29.80,West,273,8.0,13.0,8,0.00,,,0.00,,2013-08-08 19:01:00,
2013-08-08 12:43:00,106.0,35.0,29.79,WSW,239,7.0,11.0,9,0.00,,,0.00,,2013-08-08 19:43:00,
2013-08-08 12:52:00,107.0,33.0,29.79,West,272,7.0,12.0,8,0.00,,,0.00,,2013-08-08 19:52:00,
2013-08-08 14:42:00,108.0,34.0,29.75,WNW,299,1.0,4.0,8,0.00,,,0.00,,2013-08-08 21:42:00,
2013-08-08 14:52:00,108.0,34.0,29.75,NNW,345,6.0,11.0,8,0.00,,,0.00,,2013-08-08 21:52:00,
2013-08-08 15:44:00,109.0,38.0,29.72,WSW,240,5.0,7.0,9,0.00,,,0.00,,2013-08-08 22:44:00,
2013-08-08 16:43:00,109.0,38.0,29.71,South,190,3.0,4.0,9,0.00,,,0.00,,2013-08-08 23:43:00,
2013-08-08 16:53:00,108.0,34.0,29.71,West,269,0.0,1.0,8,0.00,,,0.00,,2013-08-08 23:53:00,
2013-08-08 17:01:00,108.0,37.0,29.71,WSW,241,4.0,7.0,9,0.00,,,0.00,,2013-08-09 00:01:00,
2013-08-08 17:43:00,108.0,37.0,29.70,South,182,3.0,7.0,9,0.00,,,0.00,,2013-08-09 00:43:00,
2013-08-08 17:52:00,107.0,39.0,29.69,SSW,201,5.0,8.0,10,0.00,,,0.00,,2013-08-09 00:52:00,
2013-08-08 18:43:00,104.0,37.0,29.68,SSW,209,2.0,5.0,10,0.00,,,0.00,,2013-08-09 01:43:00,
2013-08-08 19:53:00,99.0,40.0,29.69,SW,218,2.0,3.0,13,0.00,,,0.00,,2013-08-09 02:53:00,
2013-08-08 20:02:00,98.0,39.0,29.69,SW,216,1.0,2.0,13,0.00,,,0.00,,2013-08-09 03:02:00,
2013-08-08 20:11:00,97.0,40.0,29.69,SW,232,2.0,3.0,14,0.00,,,0.00,,2013-08-09 03:11:00,
2013-08-08 21:01:00,95.0,38.0,29.71,WSW,254,6.0,8.0,14,0.00,,,0.00,,2013-08-09 04:01:00,
2013-08-08 21:11:00,95.0,40.0,29.72,WSW,246,4.0,7.0,15,0.00,,,0.00,,2013-08-09 04:11:00,
2013-08-08 21:33:00,93.0,40.0,29.72,WSW,251,5.0,12.0,16,0.00,,,0.00,,2013-08-09 04:33:00,
2013-08-08 22:01:00,91.0,40.0,29.73,West,268,3.0,5.0,17,0.00,,,0.00,,2013-08-09 05:01:00,
2013-08-08 22:42:00,89.0,38.0,29.73,West,274,1.0,1.0,17,0.00,,,0.00,,2013-08-09 05:42:00,
2013-08-08 22:52:00,89.0,38.0,29.73,West,274,1.0,1.0,17,0.00,,,0.00,,2013-08-09 05:52:00,
2013-08-08 23:01:00,89.0,38.0,29.73,West,274,1.0,1.0,17,0.00,,,0.00,,2013-08-09 06:01:00,
2013-08-08 23:11:00,89.0,38.0,29.73,West,274,1.0,1.0,17,0.00,,,0.00,,2013-08-09 06:11:00,
2013-08-08 23:21:00,89.0,38.0,29.73,West,274,1.0,1.0,17,0.00,,,0.00,,2013-08-09 06:21:00,